Hourly Data Report for October 06, 2017

All times are specified in Local Standard Time (LST). Add 1 hour to adjust for Daylight Saving Time where and when it is observed.

QIKIQTARJUAQ A
NUNAVUT

67°32'48.000" N
64°01'54.000" W
5.50 m
2400577
YVM

Related Data

No related data is available for this station

Download Data

Hourly Data (October 2017)
Hourly Data Report for October 6, 2017
Temp Definition
°C
Dew Point Temp Definition
°C
Rel Hum Definition
%
Wind Dir Definition
10's deg

Wind Spd Definition
km/h
Visibility Definition
km
Stn Press Definition
kPa
Hmdx Definition


Wind Chill Definition


Weather Definition


TIME
00:00 Legend Double Dagger -0.4 -2.3 87 LegendMM 5 16.1 100.02   -2 LegendNANA
01:00 Legend Double Dagger -1.6 -3.8 85 12 8 16.1 100.01   -5 LegendNANA
02:00 Legend Double Dagger -1.0 -3.4 84 14 13 16.1 99.99   -5 LegendNANA
03:00 Legend Double Dagger -0.2 -4.3 74 12 11 16.1 99.97   -4 LegendNANA
04:00 Legend Double Dagger 0.2 -3.2 78 8 8 12.9 99.97     Rain,Snow
05:00 Legend Double Dagger -0.1 -3.5 78 8 15 16.1 99.95   -5 Rain
06:00 Legend Double Dagger -0.4 -3.4 80 6 11 16.1 99.92   -4 Snow
07:00 Legend Double Dagger -1.0 -1.8 94 8 17 1.0 99.88   -6 Snow
08:00 Legend Double Dagger -0.6 -2.8 85 LegendMM 17 16.1 99.87   -6 Snow
09:00 Legend Double Dagger -0.8 -2.3 90 4 9 16.1 99.85   -4 Snow
10:00 Legend Double Dagger -0.8 -2.2 91 1 9 2.8 99.83   -4 Snow
11:00 Legend Double Dagger -0.6 -2.2 89 35 13 12.9 99.78   -5 Snow
12:00 Legend Double Dagger -0.9 -1.7 95 34 13 4.8 99.73   -5 Snow
13:00 Legend Double Dagger -1.2 -2.1 93 34 9 2.8 99.71   -4 Snow
14:00 Legend Double Dagger -1.0 -2.8 88 34 5 16.1 99.67   -3 Snow
15:00 Legend Double Dagger -1.2 -2.7 90 36 4 6.4 99.66   -3 Snow
16:00 Legend Double Dagger -1.6 -2.6 93 LegendMM 4 3.2 99.63   -3 Snow
17:00 Legend Double Dagger -1.8 -2.5 95 11 4 2.4 99.61   -3 Snow
18:00 Legend Double Dagger -1.7 -2.4 95 11 5 4.0 99.58   -4 Snow
19:00 Legend Double Dagger -1.7 -2.3 96 12 4 2.4 99.56   -3 Snow
20:00 Legend Double Dagger -1.0 -1.8 94 34 8 16.1 99.53   -4 Snow
21:00 Legend Double Dagger -0.6 -1.9 91 36 9 4.8 99.51   -4 Snow
22:00 Legend Double Dagger -0.9 -1.3 97 33 8 1.6 99.51   -4 Snow
23:00 Legend Double Dagger -0.8 -1.4 96 1 11 4.8 99.44   -5 Snow

Notes on Data Quality.

Legend

  • E = Estimated
  • M = Missing
  • NA = Not Available
  • ‡ = Partner data that is not subject to review by the National Climate Archives
Date modified: